Regional Weather Roundup
Issued by NWS

Home | Current Version | Previous Version | Text Only | Print | Product List | Glossary Off
Versions: 1 2 3 4 5 6 7 8 9 10 11 12 13 14 15 16 17 18 19 20 21 22 23 24 25 26 27 28 29 30 31 32 33 34 35 36 37 38 39 40 41 42 43 44 45 46 47 48 49 50

000
ASUS43 KLSX 290110
RWRMO

WEATHER SUMMARY FOR MISSOURI
NATIONAL WEATHER SERVICE SPRINGFIELD MO
800 PM CDT WED SEP 28 2016

NOTE: "FAIR" INDICATES FEW OR NO CLOUDS BELOW 12,000 FEET WITH NO
       SIGNIFICANT WEATHER AND/OR OBSTRUCTIONS TO VISIBILITY.
       CURRENT SKY AND/OR WEATHER CONDITIONS ARE NOT AVAILABLE FOR
       CHILLICOTHE AND FARMINGTON.

MOZ001>031-035>038-043-044-053-054-290200-
...NORTHERN AND WESTERN MISSOURI...

CITY           SKY/WX    TMP DP  RH WIND       PRES   REMARKS
KANSAS CTY INT MOCLDY    58  47  66 NE12      30.22R
KANSAS C DTWN  CLOUDY    63  48  58 NE13      30.21R
LEE`S SUMMIT   MOCLDY    60  49  66 N12       30.21R
ST JOSEPH      CLOUDY    61  48  62 NE9       30.24R
CHILLICOTHE      N/A     60  49  66 VRB5      30.22R
KIRKSVILLE     CLEAR     56  48  74 NW7       30.19R

$$
MOZ066>068-077>081-088>096-101>105-290200-
...SOUTHWEST MISSOURI...

CITY           SKY/WX    TMP DP  RH WIND       PRES   REMARKS
SPRINGFIELD    CLEAR     59  46  62 N10       30.14R
JOPLIN         CLEAR     60  48  64 N6        30.16R
BRANSON        CLEAR     63  46  55 N8        30.12R

$$
MOZ032>034-039>042-045>050-055>058-069>072-290200-
...CENTRAL MISSOURI...

CITY           SKY/WX    TMP DP  RH WIND       PRES   REMARKS
COLUMBIA       CLOUDY    58  48  69 N8        30.17R
JEFFERSON CITY PTCLDY    59  47  64 N5        30.16R
ROLLA          CLOUDY    58  46  64 N9        30.14R
SEDALIA        PTCLDY    57  46  66 N6        30.19R
OSAGE BEACH    CLEAR     58  48  69 VRB6      30.17R

$$
MOZ051-052-059>065-290200-
...EAST CENTRAL MISSOURI...

CITY           SKY/WX    TMP DP  RH WIND       PRES   REMARKS
ST LOUIS INTL  MOCLDY    61  47  59 NW6       30.12R
SPIRIT OF STL  CLOUDY    59  48  67 W5        30.12R
ST CHARLES     CLOUDY    59  49  69 NW7       30.11R

$$
MOZ072>076-082>087-097>100-106>115-290200-
...SOUTH CENTRAL AND SOUTHEAST MISSOURI...

CITY           SKY/WX    TMP DP  RH WIND       PRES   REMARKS
CAPE GIRARDEAU CLEAR     59  46  62 N9        30.07R
FARMINGTON     MOCLDY    59  47  64 N10G21    30.11R
POPLAR BLUFF   CLEAR     59  51  75 N6        30.07R
WEST PLAINS    CLEAR     59  45  59 N6        30.13R

$$




USA.gov is the U.S. government's official web portal to all federal, state and local government web resources and services.